Lake Seminole Weather Center

Moon Phase Calendar



Lake Seminole Water Level
Online Cameras

 


      

Current Conditions in Chattahoochee
6/13/2024 4:11:10 AM

75°F
Feels Like 76
Clouds
Humidity
82%
Pressure
29.83"
Wind
5.5 mph (ESE)
Dew Point
69°F
UV Index
0/10 (Low)
Visibility
6 mi

Hourly Forecast

Date & Time Thu, Jun 13
4:00 AM
Thu, Jun 13
5:00 AM
Thu, Jun 13
6:00 AM
Thu, Jun 13
7:00 AM
Thu, Jun 13
8:00 AM
Thu, Jun 13
9:00 AM
Thu, Jun 13
10:00 AM
Thu, Jun 13
11:00 AM
Thu, Jun 13
12:00 PM
Thu, Jun 13
1:00 PM
Thu, Jun 13
2:00 PM
Thu, Jun 13
3:00 PM
Thu, Jun 13
4:00 PM
Thu, Jun 13
5:00 PM
Thu, Jun 13
6:00 PM
Thu, Jun 13
7:00 PM
Thu, Jun 13
8:00 PM
Thu, Jun 13
9:00 PM
Thu, Jun 13
10:00 PM
Thu, Jun 13
11:00 PM
Fri, Jun 14
12:00 AM
Fri, Jun 14
1:00 AM
Fri, Jun 14
2:00 AM
Fri, Jun 14
3:00 AM
Fri, Jun 14
4:00 AM
Fri, Jun 14
5:00 AM
Fri, Jun 14
6:00 AM
Fri, Jun 14
7:00 AM
Fri, Jun 14
8:00 AM
Fri, Jun 14
9:00 AM
Fri, Jun 14
10:00 AM
Fri, Jun 14
11:00 AM
Fri, Jun 14
12:00 PM
Fri, Jun 14
1:00 PM
Fri, Jun 14
2:00 PM
Fri, Jun 14
3:00 PM
Fri, Jun 14
4:00 PM
Fri, Jun 14
5:00 PM
Fri, Jun 14
6:00 PM
Fri, Jun 14
7:00 PM
Fri, Jun 14
8:00 PM
Fri, Jun 14
9:00 PM
Fri, Jun 14
10:00 PM
Fri, Jun 14
11:00 PM
Sat, Jun 15
12:00 AM
Sat, Jun 15
1:00 AM
Sat, Jun 15
2:00 AM
Sat, Jun 15
3:00 AM
Condition
Clouds

Clouds

Clouds

Clouds

Clouds

Clouds

Clouds

Clouds

Clouds

Clouds

Clouds

Clouds

Clouds

Clouds

Clouds

Clouds

Clouds

Clear

Clear

Clear

Clear

Clear

Clear

Clear

Clear

Clear

Clear

Clear

Clear

Clear

Clear

Clear

Clear

Clear

Clear

Clear

Clear

Clear

Clear

Clear

Clear

Clear

Clear

Clear

Clear

Clear

Clear

Clear
Temperature 75°F74°F74°F74°F76°F79°F82°F86°F89°F92°F94°F94°F91°F88°F87°F88°F86°F82°F81°F80°F79°F78°F77°F76°F75°F74°F74°F73°F76°F81°F85°F89°F91°F94°F95°F95°F96°F95°F95°F93°F88°F84°F83°F81°F80°F79°F77°F77°F
Feels Like 76°F76°F76°F75°F77°F80°F85°F89°F92°F95°F96°F96°F94°F92°F91°F92°F90°F84°F82°F80°F79°F78°F77°F76°F75°F74°F74°F73°F77°F83°F87°F90°F92°F94°F95°F95°F96°F95°F95°F95°F90°F85°F83°F82°F81°F79°F77°F77°F
Cloudiness 90%89%87%85%82%79%93%96%89%75%71%85%93%95%96%93%77%0%0%0%0%0%0%0%0%0%0%0%0%0%0%0%0%0%0%0%0%0%0%0%0%0%0%0%0%0%0%0%
Visibility 6 mi6 mi6 mi6 mi6 mi6 mi6 mi6 mi6 mi6 mi6 mi6 mi6 mi6 mi6 mi6 mi6 mi6 mi6 mi6 mi6 mi6 mi6 mi6 mi6 mi6 mi6 mi6 mi6 mi6 mi6 mi6 mi6 mi6 mi6 mi6 mi6 mi6 mi6 mi6 mi6 mi6 mi6 mi6 mi6 mi6 mi6 mi6 mi
Precipitation 23%70%34%17%8%0%0%0%0%0%0%0%0%0%0%0%0%0%0%0%0%0%0%0%0%0%0%0%0%0%0%0%0%0%0%0%0%0%0%0%0%0%0%0%0%0%0%0%
Humidity 82%84%86%87%85%77%67%55%46%42%39%38%44%52%55%51%57%58%58%59%59%59%59%60%62%62%63%65%64%56%51%45%39%35%33%32%31%31%32%37%48%49%49%49%50%53%56%58%
Dew Point 69°F69°F70°F70°F71°F71°F70°F67°F66°F65°F65°F65°F66°F68°F69°F68°F69°F66°F65°F64°F63°F62°F61°F61°F61°F60°F60°F60°F63°F64°F65°F64°F63°F61°F61°F61°F60°F60°F60°F63°F65°F62°F61°F60°F60°F60°F60°F60°F
Pressure 29.83"29.83"29.85"29.85"29.88"29.94"29.94"29.94"29.91"29.91"29.91"29.88"29.88"29.88"29.88"29.85"29.85"29.88"29.88"29.91"29.91"29.91"29.91"29.88"29.88"29.91"29.91"29.91"29.94"29.94"29.94"29.94"29.94"29.91"29.91"29.88"29.85"29.85"29.85"29.85"29.85"29.88"29.88"29.91"29.91"29.91"29.88"29.91"
Wind Speed 5.5 mph5.7 mph5.7 mph5.6 mph5.6 mph6.5 mph6.9 mph6.1 mph6.2 mph7.3 mph8.5 mph8.4 mph6.9 mph4.7 mph4.6 mph4.9 mph4 mph4.3 mph4.5 mph5 mph5.2 mph5.3 mph4.9 mph5.4 mph5 mph4.8 mph4.5 mph4 mph4 mph5.2 mph6 mph7.1 mph8.6 mph9.3 mph10 mph9.2 mph8.6 mph8 mph6.9 mph5.3 mph4.5 mph4.1 mph3.8 mph3.4 mph2.8 mph4.1 mph3.5 mph0.8 mph
Wind
Direction
110°
ESE
99°
E
97°
E
103°
ESE
100°
E
95°
E
86°
E
72°
ENE
56°
NE
45°
NE
37°
NE
36°
NE
43°
NE
57°
ENE
63°
ENE
59°
ENE
56°
NE
68°
ENE
71°
ENE
73°
ENE
88°
E
87°
E
88°
E
90°
E
78°
ENE
59°
ENE
54°
NE
58°
ENE
60°
ENE
53°
NE
38°
NE
37°
NE
37°
NE
38°
NE
37°
NE
32°
NNE
27°
NNE
16°
NNE
16°
NNE
21°
NNE
25°
NNE
51°
NE
83°
E
93°
E
154°
SSE
211°
SSW
230°
SW
100°
E

Daily Forecast

Date High Low Precip. Humidity
Today
Jun 13

Rain
94 °F
74 °F
70%
42%
Friday
Jun 14

Clear
96 °F
73 °F
0%
35%
Saturday
Jun 15

Clear
99 °F
75 °F
0%
31%
Sunday
Jun 16

Rain
99 °F
77 °F
20%
35%
Monday
Jun 17

Clear
95 °F
75 °F
0%
35%
Tuesday
Jun 18

Clouds
92 °F
72 °F
0%
44%
Wednesday
Jun 19

Clouds
94 °F
74 °F
0%
37%
Thursday
Jun 20

Rain
95 °F
70 °F
20%
31%
Friday
Jun 21

Rain
96 °F
72 °F
100%
34%
Saturday
Jun 22

Rain
93 °F
71 °F
100%
40%
Sunday
Jun 23

Rain
75 °F
71 °F
100%
96%
Monday
Jun 24

Rain
76 °F
73 °F
100%
92%
Tuesday
Jun 25

Rain
76 °F
72 °F
100%
95%
Wednesday
Jun 26

Rain
77 °F
74 °F
100%
96%
Thursday
Jun 27

Rain
83 °F
75 °F
100%
83%
Friday
Jun 28

Rain
89 °F
74 °F
100%
63%

Temperature 8-14 Day Outlook



Precipitation 8-14 Day Outlook






About Us
Contact Us
Site Map
Search Site
Advertise With Us
   
Seminole.USLakes.info
THE LAKE SEMINOLE WEBSITE

Copyright 2024, Lakes Online
Privacy    |    Legal